Theta_e
326 326 328 328 327 328 326 323 326 332 337 334 324 319 317 315 315 317 316 317 318 319 320 322 323 324 324 324 325 325 325 325 323 322 323 323 323 323 325 326 327 327 327 327 326 326 327 326 324 323 326 327 328 329 329 328 328 328 328 328 329 329 328 328 328 326 321 322 324 323 323 326 325 324 324 322 319 316 316 316 316 316 316 317 317
325 326 330 331 329 327 326 326 327 334 342 338 326 318 316 315 316 317 317 317 319 321 323 324 326 326 326 326 326 326 326 325 325 325 325 325 324 325 326 327 327 327 326 326 326 327 327 324 321 320 321 323 323 324 325 325 325 325 326 327 326 325 324 325 327 326 323 320 322 323 323 325 324 321 320 320 317 316 316 317 316 316 316 316 316
325 330 334 333 329 326 327 327 327 335 342 337 325 319 316 316 318 317 317 318 321 323 325 326 327 327 327 327 327 326 326 325 325 326 325 325 325 326 327 327 326 326 326 326 327 327 325 322 320 320 321 321 321 322 322 322 322 322 322 323 323 320 320 322 323 324 323 320 320 323 323 322 320 318 317 317 316 316 317 317 317 316 316 316 316
330 337 337 330 326 327 327 329 332 339 342 334 324 320 317 316 317 317 317 319 322 325 326 327 328 328 328 327 327 326 325 324 324 324 324 325 326 327 327 327 326 325 326 326 325 324 322 321 321 322 323 323 323 323 323 323 322 321 321 320 321 320 320 321 321 322 322 321 318 320 321 320 317 316 316 316 315 316 318 318 317 317 316 317 316
338 343 338 328 328 328 327 334 342 345 343 333 324 320 317 318 321 321 319 319 323 326 327 328 328 328 327 326 326 326 325 324 324 324 325 326 326 327 327 326 325 325 326 325 322 321 322 323 324 324 324 324 324 324 325 324 323 323 322 321 321 321 321 321 320 321 321 321 318 316 318 318 316 316 316 316 316 317 318 318 318 317 317 317 317
344 345 338 329 330 328 330 342 347 347 344 333 323 320 318 322 328 327 321 319 323 327 327 328 328 327 325 326 326 325 324 324 324 324 325 325 325 325 325 324 324 325 325 324 322 322 324 324 325 325 325 325 325 325 325 325 325 324 324 323 321 321 321 321 320 320 320 320 318 316 316 316 316 316 316 316 317 318 319 319 318 318 317 317 317
347 346 339 335 336 335 340 346 346 347 344 333 324 321 320 326 333 327 320 320 324 326 328 328 328 326 325 325 325 323 322 323 324 323 323 323 322 322 322 322 323 324 324 322 322 323 325 325 326 325 325 325 325 325 325 325 326 325 325 324 322 320 320 320 320 320 320 319 317 316 316 316 316 316 316 317 318 319 320 320 319 319 318 318 318
349 347 344 342 341 342 346 347 344 343 343 337 328 321 322 332 334 324 319 322 323 326 328 328 327 326 325 324 323 322 322 323 322 322 321 320 319 320 320 321 322 323 322 322 322 324 325 326 326 326 325 325 325 325 325 324 325 325 325 325 323 320 320 320 320 321 321 320 318 317 317 317 317 317 317 318 319 320 320 320 320 320 320 319 319
350 349 348 345 343 345 347 347 344 343 345 342 331 322 326 335 331 320 319 322 323 326 328 328 327 326 325 324 322 322 322 322 321 320 320 320 320 320 320 321 321 321 322 322 324 325 326 326 326 326 326 325 325 323 321 321 321 322 323 324 323 320 320 321 321 321 321 320 319 318 318 318 318 317 318 319 320 320 320 320 320 320 320 320 319
351 351 350 347 347 347 347 347 346 345 346 342 332 328 333 334 327 320 320 322 323 326 327 327 327 325 325 325 323 322 322 322 322 321 321 321 321 322 322 322 322 322 322 323 325 325 326 326 326 326 326 325 324 322 319 319 319 320 322 323 322 320 320 321 321 321 321 320 320 320 319 319 319 319 319 320 320 321 320 320 320 320 320 320 320
351 351 351 350 349 348 347 347 346 345 344 339 334 336 336 330 323 320 320 322 325 326 327 327 325 324 325 324 322 322 322 322 323 323 323 323 323 323 323 324 324 324 324 324 325 325 326 326 326 326 326 326 324 321 318 318 319 320 321 322 322 321 320 320 321 321 321 322 321 321 320 320 320 321 321 321 321 321 321 321 321 321 321 320 319
352 351 352 351 350 349 348 347 346 344 341 336 335 337 334 327 323 321 320 322 326 327 327 326 324 324 324 323 322 322 322 322 324 325 325 326 326 326 326 325 325 325 325 325 325 326 326 326 326 326 326 326 324 320 318 318 319 320 321 321 321 321 320 321 322 322 322 322 322 322 322 322 322 322 321 321 321 321 321 321 321 321 321 320 319
352 351 352 352 351 350 348 346 344 342 338 335 336 337 335 331 326 321 320 323 327 328 328 326 324 324 323 322 321 322 323 323 324 325 327 328 329 330 329 329 328 327 326 326 325 326 326 327 327 326 326 326 324 320 318 319 319 319 320 321 321 321 321 322 322 323 323 322 322 322 322 322 322 322 320 320 321 321 321 321 321 321 321 320 319
351 351 352 351 351 350 348 345 344 340 337 337 339 339 337 334 326 321 321 323 326 327 327 326 324 322 322 321 321 322 323 323 324 325 327 329 330 331 332 332 331 330 330 328 327 326 327 327 327 326 326 326 323 320 319 319 319 318 318 319 320 321 322 322 323 324 323 323 322 322 321 321 321 321 320 320 321 321 321 321 321 320 320 320 319
350 351 351 351 351 349 347 345 343 339 337 340 341 339 337 333 324 321 322 323 324 326 325 324 322 321 321 321 322 322 322 323 324 325 327 329 331 332 332 332 332 331 331 330 328 327 327 327 327 326 326 325 322 320 320 319 318 317 316 317 318 319 321 323 324 324 323 323 322 321 321 320 320 320 320 320 320 320 320 320 319 319 319 318 317
350 350 350 350 350 349 347 345 341 338 339 342 341 337 335 330 323 321 322 322 324 326 325 323 321 320 321 322 323 323 322 323 324 326 327 329 331 331 331 331 330 330 329 328 327 327 327 326 326 326 325 324 322 321 321 319 317 316 315 316 318 320 322 323 324 324 323 322 321 321 320 320 320 320 320 320 319 319 318 318 318 319 318 317 316
349 350 350 350 350 349 347 343 339 338 339 341 341 338 335 329 324 322 323 324 327 327 325 323 322 321 322 323 323 323 323 324 325 327 329 330 331 331 330 329 329 328 327 327 326 326 326 325 325 325 325 323 322 322 320 319 317 316 316 317 319 320 322 323 323 323 322 321 321 320 320 320 320 320 320 319 318 318 318 318 318 317 316 315 316
348 349 348 349 349 348 346 342 340 339 338 339 339 338 334 330 327 327 327 328 329 327 325 324 324 324 324 324 324 325 325 325 326 328 329 330 331 330 329 328 328 327 326 325 325 325 325 325 325 325 324 323 322 321 320 318 316 316 317 319 320 320 321 321 321 321 321 320 320 320 320 320 320 320 319 318 317 317 318 318 317 315 315 315 315
343 344 345 347 348 347 345 342 339 338 338 338 338 337 334 331 331 332 333 333 332 331 329 327 328 328 327 326 326 326 325 326 328 329 330 331 330 328 328 328 327 325 325 325 325 325 325 325 325 324 323 322 321 320 319 317 316 316 318 320 321 321 321 321 321 320 320 320 320 320 320 320 319 319 318 317 316 317 318 318 317 315 315 315 315
338 341 345 347 347 346 344 340 338 339 339 337 336 334 332 331 332 333 334 334 335 336 335 334 334 334 333 332 330 330 330 330 331 330 331 331 329 327 327 327 325 324 324 324 324 324 324 324 324 323 322 321 321 320 318 316 315 317 319 321 321 321 321 320 320 320 320 320 320 320 320 319 318 318 317 316 315 315 316 318 317 316 315 315 316
340 343 346 346 346 345 343 341 340 339 337 336 335 334 333 332 332 331 333 333 335 336 337 337 337 337 336 335 333 332 332 332 331 330 330 330 328 327 326 326 324 323 322 322 322 322 322 322 322 322 321 321 321 319 315 314 315 318 319 320 321 321 320 320 320 320 320 320 319 319 319 318 317 317 315 314 313 312 313 316 318 317 316 316 316
343 345 346 346 345 344 343 342 341 337 335 334 335 335 334 333 333 332 333 334 335 337 338 338 338 337 336 336 334 332 331 330 330 330 329 328 327 326 325 324 322 321 320 319 320 320 321 321 322 322 322 321 319 316 313 313 316 318 320 320 320 320 319 319 319 319 319 319 318 318 318 317 316 315 313 312 311 310 310 314 318 318 317 316 316
345 345 345 345 345 344 343 343 340 337 334 331 332 333 333 332 332 332 334 335 336 337 337 337 337 337 336 336 334 332 331 330 329 328 327 327 326 325 324 321 320 319 319 319 319 319 320 321 322 322 322 320 317 313 312 314 317 319 320 320 319 319 319 319 319 318 318 317 317 317 317 315 314 313 311 311 311 310 309 313 317 318 317 316 315
344 344 345 345 344 344 344 342 340 338 334 330 329 330 329 329 330 332 333 335 335 334 333 333 334 335 335 334 333 332 331 329 327 326 327 326 325 323 321 319 319 319 319 319 319 319 320 322 322 321 321 319 314 311 313 316 318 319 319 319 318 318 318 318 317 317 316 316 316 316 315 313 311 310 310 310 310 309 308 312 316 318 317 316 315
343 343 343 343 343 343 343 341 339 338 335 330 327 325 326 329 330 331 332 332 332 332 331 332 333 334 334 333 331 329 329 327 327 327 326 325 322 320 319 318 318 319 319 319 319 320 321 321 321 321 320 316 312 312 316 318 319 319 318 318 317 317 317 316 315 315 315 315 315 314 312 310 309 310 310 310 309 308 307 311 316 318 317 316 315
342 342 342 342 342 342 342 341 340 338 334 328 325 323 326 330 332 333 332 332 331 330 330 332 334 334 333 331 328 327 326 327 327 326 324 321 319 318 317 318 318 318 319 319 319 320 321 321 320 320 317 313 312 315 318 318 318 318 317 316 316 316 315 314 314 314 314 313 312 310 308 308 309 310 310 309 307 306 306 310 316 319 317 316 315
342 341 341 341 341 341 341 340 339 338 334 329 328 328 329 332 333 333 331 329 327 324 324 330 334 332 329 328 326 326 326 326 326 324 321 319 317 317 317 317 317 318 319 319 320 320 320 320 319 316 313 312 315 317 318 317 317 317 316 316 315 315 314 314 313 312 311 309 308 307 307 308 309 309 308 306 305 305 306 311 318 320 317 316 315
341 340 340 340 340 340 340 338 337 337 335 331 330 331 332 332 332 329 325 323 321 318 320 328 331 328 325 326 326 326 326 325 323 321 319 318 317 317 317 317 318 318 319 320 320 320 320 319 316 312 312 314 317 317 317 316 316 316 315 315 314 313 313 313 311 309 308 307 307 307 308 308 307 306 304 303 304 304 306 312 318 320 317 315 316
340 339 339 339 339 338 338 336 335 335 334 332 331 332 332 330 328 324 321 319 320 320 323 327 327 325 325 326 326 326 325 323 321 319 318 317 317 317 318 318 318 319 320 320 320 320 319 316 312 312 314 316 317 316 316 316 315 315 314 313 313 313 312 310 308 307 307 307 308 307 307 305 304 303 302 302 303 304 306 313 319 320 317 316 316
338 337 337 337 336 336 336 335 334 333 333 333 332 330 328 324 322 322 320 319 319 323 327 327 326 325 326 326 326 325 324 322 320 319 318 317 317 318 318 318 319 319 320 320 320 319 316 313 312 314 315 315 315 315 314 314 314 314 313 312 312 311 310 308 307 307 308 308 307 305 303 302 301 301 301 302 302 303 306 314 319 320 318 317 315
337 336 336 335 335 335 335 334 334 332 332 331 329 325 323 321 322 322 320 318 320 325 328 327 326 326 326 326 325 324 322 321 319 318 317 317 318 318 319 318 318 319 319 319 319 317 313 311 312 313 313 313 313 313 313 313 313 312 312 311 309 308 307 307 307 308 308 307 305 302 300 299 299 299 300 301 302 302 307 314 319 320 320 318 315
336 335 334 333 333 334 332 332 332 332 331 331 329 325 322 322 321 320 319 320 324 327 327 327 326 326 326 325 325 323 322 320 319 318 318 317 318 318 318 317 318 318 318 318 316 314 312 312 312 312 311 310 311 312 312 312 311 311 310 309 307 307 307 307 308 308 306 304 301 299 298 298 298 298 299 301 301 303 308 315 319 320 320 319 316
334 331 328 328 329 329 329 329 330 330 330 330 329 325 322 320 319 320 322 325 327 328 327 327 327 326 325 325 324 322 321 320 319 318 317 317 318 317 316 315 315 315 314 313 312 312 312 313 312 311 309 310 311 311 311 310 310 309 309 309 308 307 308 308 307 305 302 300 298 297 296 296 297 298 299 300 301 303 309 315 318 319 320 319 316
330 327 324 324 324 324 325 326 328 328 327 326 325 323 322 321 321 323 325 326 327 328 327 327 326 326 325 324 323 322 321 320 318 318 317 317 316 315 312 311 311 311 311 311 311 312 313 313 311 309 309 310 310 310 310 309 309 310 310 309 308 307 307 306 304 301 298 297 296 296 295 296 297 298 297 299 301 303 308 314 317 318 320 320 317
325 324 324 323 323 323 323 322 323 324 323 322 321 321 321 322 324 326 327 328 327 327 327 326 325 324 324 323 323 322 320 319 318 317 316 316 315 313 311 311 311 312 312 312 312 313 313 312 310 309 309 310 310 309 309 309 310 309 308 307 307 307 306 303 299 297 296 296 295 295 295 296 297 297 296 298 301 303 306 312 316 317 318 320 318
323 324 326 326 326 325 323 321 322 323 322 322 322 323 324 326 327 328 328 327 326 325 325 324 324 323 323 323 322 321 320 318 316 316 315 315 315 314 313 313 313 312 312 312 313 313 312 310 309 309 309 309 309 309 309 308 308 307 307 307 306 305 301 298 296 295 295 295 295 295 295 295 296 296 295 297 300 302 305 310 315 317 318 319 319
326 326 327 326 325 325 325 326 327 328 327 327 327 327 328 328 327 327 326 326 325 325 324 323 323 324 323 323 322 320 318 317 316 315 315 314 314 314 314 313 312 312 312 312 311 311 309 308 308 308 308 308 308 308 307 306 306 306 306 305 303 300 297 295 295 295 295 295 295 295 295 295 295 295 295 295 297 300 303 308 314 317 317 319 319
326 327 327 327 327 328 328 329 329 329 329 329 329 328 327 327 326 326 325 325 325 325 324 323 324 324 323 322 321 319 318 316 316 315 315 314 314 314 313 312 312 311 311 310 310 309 308 308 308 308 308 307 307 306 306 305 305 305 304 301 298 296 294 294 294 295 295 295 295 295 295 295 295 295 295 295 296 297 300 306 311 315 317 318 319
327 329 329 328 329 329 328 328 329 329 329 329 328 327 327 327 326 326 326 325 325 325 324 323 323 323 323 321 319 318 317 316 316 316 315 315 314 314 313 312 311 310 311 310 309 308 308 308 307 307 307 307 306 305 305 306 305 303 299 297 295 294 294 294 294 295 295 295 295 295 295 295 295 295 295 295 295 296 298 303 309 313 316 317 318
326 326 324 323 323 323 322 322 324 326 328 328 327 327 327 326 326 326 325 325 325 324 323 323 323 323 322 320 319 317 317 316 316 316 315 315 315 314 312 311 310 310 310 309 309 308 308 307 307 306 306 305 304 304 304 304 303 299 295 294 294 294 294 295 295 295 295 295 295 295 295 295 295 295 295 295 295 295 296 300 307 312 314 316 317
323 321 320 319 320 320 321 321 323 326 327 327 326 326 325 325 325 325 324 324 324 324 323 323 323 323 321 319 318 317 317 316 316 315 315 315 315 314 312 310 310 310 309 309 308 308 307 306 305 305 304 303 302 301 301 300 298 295 294 294 294 294 294 294 294 294 295 295 295 295 295 295 295 295 295 294 295 295 295 297 303 309 313 315 316
321 321 322 323 324 325 325 325 326 326 325 324 323 323 323 324 324 324 324 324 324 323 322 322 322 321 320 319 318 317 317 316 316 315 315 315 314 313 310 309 309 309 309 308 308 307 306 305 304 303 302 301 298 297 297 296 294 293 294 294 294 294 294 294 294 294 294 295 295 295 295 295 295 295 295 294 294 295 295 295 299 306 311 313 315
323 325 326 326 326 326 325 324 323 322 321 322 322 323 323 324 323 323 323 322 322 322 322 321 321 321 320 319 318 318 317 317 316 315 315 314 313 311 309 308 308 308 308 308 307 306 304 303 303 302 301 298 296 295 294 294 293 293 294 294 294 294 294 294 294 294 294 295 295 295 295 295 295 295 295 295 294 294 295 295 297 301 307 311 313
325 326 326 325 324 322 321 321 320 321 322 322 322 322 322 322 322 321 322 322 322 322 321 320 320 320 319 319 318 317 317 317 316 315 314 314 312 310 308 307 307 307 307 307 306 305 304 302 302 301 299 296 294 293 294 294 293 294 294 294 294 294 294 294 294 294 294 295 295 295 295 295 295 295 295 295 294 294 294 294 295 298 302 307 310
324 324 323 322 321 320 320 320 320 321 321 321 321 321 321 321 320 320 321 321 321 320 320 319 319 319 318 318 317 317 317 316 315 315 314 313 311 309 307 306 306 306 307 307 306 305 304 302 302 301 298 294 293 293 293 294 294 294 294 294 294 294 294 294 294 294 294 295 295 295 295 295 295 295 295 295 294 294 294 294 295 296 299 303 306
322 322 321 320 320 319 319 319 319 319 319 318 318 318 318 318 318 318 319 320 320 319 319 319 318 318 318 317 317 316 316 316 315 314 313 312 310 307 306 305 305 306 306 306 306 305 304 302 302 301 299 295 293 293 293 293 294 293 294 294 294 294 294 294 294 294 294 294 294 295 295 295 295 295 295 294 294 294 293 294 294 295 297 299 303
321 320 319 319 318 318 318 317 317 316 316 315 314 314 314 315 315 316 317 317 318 317 317 317 317 317 317 317 317 316 316 315 314 314 313 311 308 306 305 305 304 305 305 305 305 305 303 302 302 302 300 296 294 293 293 293 293 293 293 294 294 294 294 293 293 293 293 293 294 294 294 294 294 294 294 294 294 294 293 293 294 295 295 297 300
319 318 317 317 317 317 316 316 316 315 315 314 313 313 313 313 313 313 314 314 314 315 315 315 315 316 316 316 316 316 315 314 314 313 312 310 308 306 305 305 304 304 305 305 304 303 303 302 302 302 299 296 294 294 294 294 294 294 294 294 294 294 294 293 293 293 293 293 293 293 294 294 294 294 294 294 294 293 293 293 293 294 295 295 297
316 315 315 315 316 316 316 316 315 315 315 314 314 313 313 313 313 313 312 312 312 313 313 313 314 315 315 314 314 314 314 313 313 312 310 309 307 306 306 305 304 304 304 304 303 303 303 302 302 301 298 296 295 295 295 295 295 295 295 295 294 294 294 294 294 293 292 292 293 293 293 293 294 294 294 294 293 293 293 293 293 294 295 294 295
312 311 311 312 312 313 313 313 314 314 314 314 313 313 313 313 313 314 314 313 313 312 312 312 313 314 313 313 313 313 312 312 311 310 310 309 307 307 306 305 303 303 303 303 303 303 303 302 302 300 298 296 295 295 295 295 295 295 295 295 295 295 295 295 294 293 292 292 292 292 292 293 293 293 293 293 293 293 293 293 293 293 294 294 294
309 309 310 310 310 309 309 309 310 310 311 311 311 311 311 311 311 312 313 314 314 314 313 313 312 312 313 313 313 312 311 311 311 311 310 309 308 307 306 305 304 303 303 303 303 303 303 302 301 300 297 296 296 296 296 296 295 295 295 295 295 295 295 294 294 293 292 292 292 292 292 293 293 293 293 293 293 293 293 293 293 293 293 293 294
Wind_Speed
48 47 45 42 39 34 31 30 30 28 24 21 20 20 21 21 19 18 18 17 16 16 16 16 16 15 13 12 10 9 9 9 10 10 10 10 9 8 8 9 11 12 13 13 13 14 15 15 15 14 14 15 16 17 18 19 20 21 22 22 22 22 23 24 29 33 35 35 33 31 28 28 29 29 30 30 27 25 26 26 27 30 33 35 36
51 49 46 43 41 37 35 34 32 29 26 22 20 21 22 19 16 17 18 17 16 17 17 17 16 15 13 12 10 10 9 9 10 11 11 10 9 8 9 11 13 14 14 14 14 14 15 14 12 12 13 14 15 16 18 19 20 21 22 22 22 22 22 24 28 31 35 35 34 32 31 30 30 29 29 30 29 28 28 27 28 31 34 37 39
52 50 47 44 43 41 40 37 33 31 27 22 20 22 20 17 16 17 17 17 17 17 17 17 16 14 13 12 11 10 10 10 11 11 11 10 9 10 11 12 14 14 14 15 14 13 13 12 12 12 14 15 16 16 16 17 19 21 22 21 22 22 23 24 26 29 32 34 33 33 32 31 30 29 28 28 28 29 29 29 30 32 35 37 40
51 49 48 47 46 45 44 41 37 33 29 24 23 23 19 17 16 16 17 18 19 19 18 17 16 15 14 12 11 11 10 10 11 12 12 12 11 12 12 13 14 14 14 14 13 12 12 12 13 14 15 17 18 17 17 18 18 20 21 21 22 23 23 24 26 27 30 33 33 32 32 31 30 29 28 28 29 30 31 30 31 34 36 38 41
49 47 49 51 50 49 47 44 40 36 30 26 26 24 20 17 15 16 19 20 20 21 20 19 17 16 15 13 12 11 11 11 12 13 13 13 13 13 13 13 14 14 14 13 12 11 12 14 15 16 17 18 19 20 20 20 20 21 22 22 23 24 25 25 26 27 28 32 33 32 31 31 30 29 28 29 31 32 32 32 33 36 38 39 42
45 45 50 54 54 52 50 45 42 38 32 28 28 26 22 18 18 21 22 22 23 23 22 21 19 18 16 14 13 12 12 12 13 14 14 14 14 13 13 14 14 15 15 13 12 13 14 16 17 17 18 19 20 21 21 22 22 23 23 23 23 25 26 26 27 27 28 30 32 32 32 31 32 31 29 29 32 34 34 35 35 37 39 42 44
44 47 52 54 54 53 49 45 43 41 36 34 34 32 28 23 24 25 24 24 25 26 24 22 20 18 16 15 14 14 13 13 14 15 15 14 14 14 14 14 15 15 15 14 14 15 16 17 18 19 19 20 21 22 23 24 25 25 25 25 24 25 27 27 27 27 28 29 30 31 32 32 33 34 32 31 32 34 35 38 40 40 41 44 46
45 48 51 51 52 51 48 47 48 47 45 44 42 40 35 28 26 26 25 25 28 28 26 23 21 19 17 16 15 15 14 14 14 14 14 14 14 14 14 15 16 16 15 15 16 17 17 18 19 20 21 22 23 23 25 26 27 27 27 25 24 25 26 27 27 27 28 28 29 30 32 34 35 36 35 34 33 34 34 38 43 44 45 47 48
46 47 49 51 52 49 47 51 54 52 51 50 48 45 38 29 27 28 27 27 29 29 26 24 22 21 19 18 17 17 16 14 13 13 13 13 13 13 13 14 15 15 16 16 17 18 18 20 21 21 22 22 23 24 25 25 26 27 27 26 25 25 25 26 26 26 26 27 28 30 32 35 36 37 37 35 35 36 36 38 43 46 48 51 50
46 47 50 52 50 48 48 51 53 52 52 54 53 46 36 29 29 30 29 28 30 30 28 26 25 23 21 20 19 19 17 15 13 13 13 12 12 12 12 13 14 15 16 17 18 19 20 22 23 23 23 23 23 24 24 24 24 25 26 26 25 25 26 26 25 25 25 27 29 30 33 36 37 37 37 36 36 38 39 41 44 48 50 53 54
45 47 49 49 48 48 49 50 51 51 54 56 53 42 31 29 31 32 31 30 30 30 29 28 26 24 22 21 21 20 19 17 16 14 13 13 13 13 14 15 16 17 18 19 20 21 22 23 25 25 25 24 24 24 23 23 24 24 25 26 26 27 27 27 26 25 25 28 29 30 33 36 37 36 36 37 37 39 40 42 45 48 50 52 57
44 46 46 46 48 48 49 50 50 51 53 52 45 34 28 29 32 34 34 32 31 31 31 30 27 25 23 22 21 20 19 19 18 16 15 15 15 16 17 18 19 20 20 21 22 23 24 25 26 26 26 25 25 24 23 23 24 24 25 26 27 28 29 28 27 25 26 29 31 31 32 34 35 36 36 37 38 39 42 43 45 47 49 51 56
42 43 44 46 47 47 48 48 47 49 50 46 37 30 28 29 33 35 35 33 32 32 32 31 28 26 24 23 22 21 19 19 18 17 16 16 16 18 20 21 22 23 24 24 24 25 27 27 27 27 27 25 25 24 23 23 24 24 25 26 27 28 30 30 27 25 27 29 30 30 31 31 32 35 36 37 38 41 43 46 47 48 50 52 54
40 42 43 45 45 45 46 46 46 49 48 41 35 33 31 31 34 35 34 33 33 33 32 32 29 26 25 24 22 21 19 18 17 16 17 17 17 19 21 23 24 25 26 27 26 27 28 29 28 28 27 26 24 24 24 24 24 25 26 27 27 28 29 30 27 26 27 29 30 32 32 32 32 34 35 35 37 40 43 45 46 47 50 50 50
39 41 42 43 44 45 46 47 49 50 44 35 33 34 32 33 35 35 35 34 33 32 32 31 29 26 25 24 23 22 20 18 18 17 17 17 18 20 23 24 24 25 27 27 26 27 28 29 28 28 27 26 24 23 24 25 25 26 27 27 27 27 28 28 27 28 29 30 31 32 33 33 32 32 32 32 34 36 38 40 43 45 46 46 48
38 39 41 42 44 45 46 47 48 47 39 32 32 32 32 35 35 34 35 34 33 32 32 31 29 27 26 25 25 24 22 20 19 18 18 18 20 22 23 23 24 24 24 23 24 25 27 28 28 28 27 25 24 24 25 25 26 27 27 26 26 27 27 27 28 29 30 30 30 31 31 31 28 27 27 28 31 34 36 39 41 41 42 45 49
35 37 39 41 43 45 46 46 47 46 38 31 30 30 32 35 35 34 35 34 32 32 31 31 30 28 27 26 26 26 24 21 21 21 20 21 22 22 23 23 22 21 20 19 20 23 25 27 28 27 26 25 25 25 25 25 26 26 26 25 26 27 27 28 28 29 29 29 29 29 29 26 24 23 24 27 31 33 34 37 37 37 39 43 47
31 33 35 39 41 43 45 45 46 47 37 27 28 30 31 35 36 36 35 33 31 31 30 30 31 29 28 27 26 25 24 22 23 24 23 23 22 21 22 22 20 19 18 18 20 22 24 26 27 26 26 25 25 25 24 25 25 25 24 24 25 27 27 27 27 27 27 27 27 26 25 22 22 24 26 29 31 31 31 32 33 34 39 43 46
24 26 30 35 38 42 44 44 46 45 30 20 25 29 30 34 36 36 35 34 33 31 30 31 31 30 29 28 27 26 25 26 28 28 26 24 22 20 21 20 18 17 17 18 20 22 24 25 26 26 25 25 24 24 24 25 24 23 23 24 26 26 26 25 26 26 27 28 26 23 21 21 23 26 29 30 30 30 29 30 30 33 38 43 47
19 23 28 33 36 40 42 42 46 43 26 18 24 28 29 31 33 33 34 35 35 35 34 35 34 33 32 31 30 29 28 27 26 25 24 25 23 20 19 18 17 16 17 19 21 22 23 24 25 24 23 23 23 24 24 24 23 22 23 24 25 25 25 25 25 26 26 25 23 22 22 23 25 28 29 29 29 29 30 29 29 31 36 43 49
21 25 29 32 34 38 41 42 46 38 22 18 24 27 28 30 29 28 30 32 34 36 36 35 34 33 33 31 27 24 23 24 22 20 20 23 22 18 17 16 16 17 18 19 20 20 21 22 22 22 22 22 23 24 23 23 22 22 23 24 24 24 24 25 25 24 23 22 22 23 24 26 27 28 28 28 29 30 31 29 28 30 35 41 47
24 27 29 31 33 37 38 42 43 29 15 17 24 23 24 26 24 24 27 29 30 31 31 31 30 31 32 31 27 25 27 28 27 25 23 20 17 15 15 16 17 17 18 18 18 19 20 20 20 20 21 22 23 23 22 22 22 22 22 22 22 23 24 23 22 21 21 22 24 25 26 27 28 28 27 28 30 32 33 31 28 30 33 37 42
25 27 28 29 32 34 35 40 39 25 13 19 23 19 20 23 22 23 24 24 24 24 25 26 27 27 29 30 29 29 28 26 24 22 19 16 13 14 15 16 17 17 17 17 17 18 18 18 18 19 20 22 23 22 21 21 20 20 21 21 22 22 21 20 20 20 22 24 26 27 27 27 28 28 28 30 32 34 35 33 30 30 33 37 40
23 25 26 27 28 30 32 37 35 22 16 23 24 21 22 23 21 20 19 19 20 21 21 23 24 23 24 26 26 24 22 20 17 14 14 13 12 14 15 16 16 16 16 16 16 16 17 17 18 19 20 22 22 21 19 18 19 19 21 22 22 20 19 19 20 21 23 25 27 28 28 26 26 28 30 33 35 35 35 34 31 30 33 38 41
19 21 22 24 25 27 31 35 30 20 20 28 29 25 23 20 17 16 17 18 17 16 16 19 21 21 22 23 20 17 16 16 13 10 11 11 13 14 15 16 16 16 16 16 15 15 16 16 17 19 21 21 20 18 16 17 18 20 21 21 20 18 19 20 22 24 26 27 28 28 26 25 26 28 32 35 36 35 35 35 31 30 33 38 41
16 16 18 20 23 25 30 33 29 21 24 31 32 28 21 15 15 16 16 13 11 10 12 16 18 18 18 17 15 14 13 12 10 9 10 12 14 15 16 17 17 17 16 15 14 15 16 17 18 19 20 19 17 15 15 16 18 20 20 19 18 18 20 22 24 26 26 26 26 25 25 26 28 30 33 35 35 33 34 35 33 31 34 38 42
14 14 16 18 21 24 28 29 25 23 28 30 26 23 17 14 14 12 8 5 6 7 10 13 14 14 14 13 13 14 12 10 9 9 11 13 15 16 17 18 18 17 15 14 14 15 16 17 18 17 16 15 14 14 15 17 18 18 18 17 18 20 22 24 24 25 24 24 24 25 27 29 31 33 35 35 33 31 31 32 32 31 33 37 41
12 12 15 18 21 23 25 24 21 24 31 29 20 14 13 12 9 7 4 5 6 7 9 11 12 13 13 13 14 13 11 9 10 11 13 15 17 17 17 17 17 16 15 14 14 15 16 16 16 15 14 13 13 14 16 17 16 16 16 17 19 21 22 22 22 22 22 23 25 27 30 32 33 35 35 33 29 28 29 29 29 28 31 35 39
10 12 15 17 19 20 20 21 22 26 31 30 22 15 11 9 8 6 5 5 5 8 10 12 13 13 13 13 13 12 11 10 11 12 15 17 17 17 16 15 15 15 14 13 14 15 14 14 13 12 12 12 13 14 15 15 15 16 17 18 19 21 21 21 20 20 21 24 26 29 31 33 33 32 31 29 27 26 27 27 27 26 28 33 37
12 14 15 16 17 18 19 21 23 26 27 26 19 12 10 9 6 4 7 6 5 9 13 14 13 13 14 14 13 12 12 11 12 14 16 17 16 15 14 13 14 14 13 13 14 13 12 11 11 11 11 12 13 14 14 14 14 15 16 17 18 19 20 19 20 21 24 26 28 30 30 30 30 29 28 28 27 26 25 25 25 25 26 30 34
14 15 15 15 15 17 18 18 20 22 22 20 18 14 9 7 6 6 8 9 10 12 15 16 15 15 14 14 14 13 12 12 12 14 15 15 14 13 12 12 13 13 12 12 12 11 11 10 10 11 12 13 13 13 13 13 14 14 14 16 17 18 18 19 21 24 26 28 28 28 27 26 26 27 27 28 27 26 24 23 24 24 23 26 31
14 15 15 15 15 16 16 17 21 22 21 21 24 19 12 12 10 9 11 13 13 15 17 18 17 16 15 15 15 13 12 12 12 13 14 14 13 12 12 12 13 12 12 11 10 10 11 11 11 11 12 12 13 12 12 12 12 13 15 16 16 17 19 21 24 26 27 26 25 24 23 24 24 25 26 26 25 24 24 23 24 24 23 23 27
16 17 17 15 14 16 17 19 22 22 20 21 23 19 14 13 12 12 12 14 16 18 19 18 17 17 16 16 15 14 12 11 11 12 13 13 12 11 11 11 11 11 11 10 10 11 11 11 11 11 11 11 11 11 12 12 12 14 16 17 17 18 21 24 26 26 24 22 21 21 21 22 23 24 24 24 24 23 23 23 23 23 23 22 24
18 17 13 9 9 13 17 19 19 19 17 17 18 17 16 14 12 11 13 16 18 18 17 17 17 17 17 17 16 14 11 10 10 12 13 13 11 9 9 9 10 10 10 10 11 11 12 12 12 11 10 10 10 11 12 13 14 15 16 17 17 19 22 25 24 22 19 18 18 19 20 21 22 23 24 24 24 23 23 23 23 23 22 21 22
16 12 6 3 3 5 9 13 14 14 15 16 15 15 14 13 11 10 11 14 15 14 14 16 16 17 18 18 15 12 9 9 9 11 12 10 9 8 8 9 10 11 11 11 11 12 12 12 11 11 10 10 10 11 13 14 15 16 15 15 17 20 22 22 19 17 16 16 16 18 19 20 21 22 23 24 24 24 24 24 23 23 22 20 20
12 10 9 10 9 9 9 8 7 8 10 11 11 9 8 7 7 8 10 12 13 13 14 15 16 16 17 15 12 9 8 7 7 8 8 7 7 7 8 9 10 11 11 11 12 12 11 11 10 11 10 10 11 12 13 14 14 14 15 16 18 20 19 17 15 14 14 14 16 17 18 19 21 22 23 24 24 25 24 23 23 23 22 20 20
14 14 14 12 10 8 7 6 4 5 6 6 5 3 3 5 6 8 11 13 14 14 15 15 15 16 15 13 9 7 6 6 5 5 4 4 4 5 5 7 8 9 10 10 11 10 9 9 10 10 11 11 12 13 13 13 13 14 16 17 17 16 15 13 13 13 13 14 16 17 17 19 20 21 23 23 24 25 25 24 23 22 21 20 20
8 6 5 5 4 4 4 4 4 4 4 3 2 2 4 6 8 10 12 13 14 15 15 14 15 16 13 9 7 6 6 5 4 3 3 3 3 4 5 6 7 7 8 9 9 8 8 9 9 10 11 12 13 13 12 12 13 14 15 15 13 12 11 11 12 13 13 14 15 16 17 18 19 20 21 22 23 25 25 24 23 23 22 20 20
9 9 9 7 6 5 3 2 2 2 2 2 2 4 5 7 9 10 11 12 13 14 13 14 16 15 11 8 7 7 5 4 3 3 4 4 5 6 7 7 7 8 8 8 8 8 8 9 9 10 10 11 12 12 12 13 14 14 12 11 9 9 10 10 11 12 13 14 15 15 16 18 19 20 20 21 22 24 25 24 23 23 23 21 20
10 9 7 5 3 1 1 2 3 3 4 4 5 6 7 9 10 11 12 12 12 11 11 13 15 14 11 9 8 7 6 5 4 4 5 6 8 9 8 8 7 8 8 9 9 9 9 10 10 10 10 10 11 12 12 12 12 10 9 8 7 8 9 10 11 12 13 14 14 15 16 17 18 19 19 20 21 22 23 23 22 22 22 21 20
5 2 2 3 4 5 5 5 6 6 5 6 7 8 9 10 11 12 12 12 12 11 11 12 13 13 11 9 9 8 8 7 6 6 6 7 9 10 9 8 7 8 8 9 9 9 10 10 9 8 9 9 10 11 10 9 8 7 6 6 7 8 9 10 11 12 12 13 14 15 15 17 18 19 19 20 21 21 21 21 21 20 20 20 20
4 5 5 4 5 5 6 6 6 6 7 8 9 10 11 12 12 11 11 11 11 11 11 12 13 13 12 10 10 10 9 9 9 9 8 8 9 9 9 8 7 8 9 10 9 9 9 9 8 7 8 9 9 8 7 6 5 5 5 6 6 7 9 9 10 11 12 13 13 14 15 16 17 18 18 19 20 20 20 20 20 19 19 19 20
5 4 4 4 5 5 5 5 6 7 8 9 9 9 10 10 11 11 11 10 10 11 12 13 14 13 13 12 11 11 11 11 11 10 9 9 9 9 8 7 7 8 9 9 9 8 8 6 5 6 7 8 7 6 4 4 4 4 4 5 6 7 8 9 9 10 11 12 13 14 14 16 17 18 18 19 20 20 20 20 19 19 19 19 19
4 4 5 5 5 4 4 5 6 7 8 8 9 10 10 11 11 11 11 11 11 11 12 13 14 14 13 13 12 12 13 12 11 10 10 9 9 9 8 7 7 8 9 9 8 7 6 5 5 6 8 7 5 4 3 3 3 4 4 5 6 7 7 8 9 9 10 12 13 13 14 15 17 18 19 20 20 20 20 20 20 18 18 18 18
5 5 5 4 4 5 6 6 6 7 8 8 8 9 9 9 9 10 11 11 11 11 11 12 14 14 14 13 12 13 13 12 11 11 10 9 9 10 9 8 8 9 9 9 8 8 7 6 5 6 7 6 4 3 3 3 3 4 5 5 6 6 7 7 8 9 10 11 12 13 13 14 16 17 19 20 20 19 19 20 20 19 18 17 17
3 2 3 4 5 6 5 5 5 5 4 4 4 5 5 6 7 8 9 10 10 9 10 11 12 13 13 12 12 12 12 12 12 11 9 9 9 9 9 8 9 10 10 9 9 9 8 6 5 7 7 5 4 3 3 4 4 5 5 6 6 7 7 8 8 8 9 10 10 11 12 13 15 16 18 19 18 18 18 19 19 19 19 17 16
2 3 4 4 5 4 3 3 3 3 2 2 2 2 3 4 5 6 7 8 8 8 8 9 10 11 11 11 11 11 11 11 11 10 9 8 8 8 8 9 10 10 10 10 9 9 7 5 5 7 8 6 4 4 4 5 5 6 6 7 7 7 8 8 8 8 8 9 9 10 11 12 13 15 16 17 17 17 17 18 19 19 19 18 16
3 3 2 2 2 2 3 3 3 3 3 3 2 3 3 3 3 4 5 6 7 7 8 9 9 10 10 9 9 9 10 10 10 10 8 8 7 7 8 9 10 10 9 8 7 7 5 4 6 8 8 6 4 4 4 5 6 6 7 7 8 8 8 8 7 7 7 7 8 8 9 10 12 13 15 16 17 17 16 17 18 18 18 18 16
1 1 1 1 2 2 2 3 3 4 5 5 6 6 6 5 5 5 6 6 7 7 8 9 10 10 9 8 8 8 9 10 10 9 8 7 8 8 8 9 9 9 8 7 6 6 5 5 7 8 7 6 4 4 5 5 6 7 7 8 9 9 8 8 7 6 6 6 6 7 7 8 10 11 13 14 15 16 16 16 16 17 17 17 16
0 1 1 1 0 2 3 4 5 6 7 7 7 8 8 9 9 9 9 9 10 9 9 10 11 11 11 10 9 9 9 9 9 9 8 8 9 10 10 9 8 8 8 7 7 6 6 6 7 8 7 6 5 5 5 6 6 7 8 8 9 9 9 8 6 5 4 4 4 5 5 6 8 9 11 13 14 14 14 15 15 15 15 16 16
2 2 2 2 1 2 3 4 5 6 7 7 7 8 9 10 11 12 13 14 14 13 12 12 12 12 13 12 11 11 10 10 10 11 11 11 11 11 11 10 9 8 8 8 8 7 6 7 8 8 7 6 5 5 5 5 6 7 8 8 8 8 8 7 5 3 2 2 3 3 4 4 6 7 9 11 12 13 13 14 14 14 13 13 14
Wind_Direction
221 220 219 219 220 219 218 219 224 229 233 235 237 238 237 232 229 230 232 233 231 227 224 221 217 215 214 217 224 233 243 248 247 245 250 256 256 250 251 259 269 275 281 286 289 289 288 290 296 301 296 290 289 289 291 295 298 298 298 300 301 300 299 299 298 300 303 304 305 307 308 309 309 309 310 312 315 317 318 319 323 327 328 329 329
222 221 219 219 220 220 218 221 225 228 230 233 236 236 235 233 233 235 236 234 228 223 220 216 211 209 211 216 223 230 238 242 242 243 248 251 249 249 258 267 275 280 284 289 291 287 287 292 301 310 306 300 299 298 298 299 299 298 297 296 297 297 296 297 299 300 301 302 304 305 307 308 307 308 310 310 312 315 315 317 322 326 328 329 329
224 224 220 218 220 221 220 221 223 225 224 227 236 238 235 233 234 236 240 237 228 221 216 212 208 208 212 218 224 230 237 239 240 243 246 249 251 256 264 272 279 283 286 288 289 286 287 293 303 310 307 303 303 303 303 302 301 299 297 296 296 297 298 299 298 298 298 300 303 303 306 308 308 309 310 309 310 313 313 314 319 323 326 328 329
226 225 222 218 219 221 222 221 221 222 219 217 225 233 232 228 230 236 242 240 230 220 215 211 210 211 215 219 225 231 238 240 241 245 249 253 258 263 270 277 281 280 282 284 285 284 286 294 304 308 305 303 303 304 303 302 301 300 299 299 298 299 301 300 298 297 296 298 302 305 306 307 309 310 310 309 310 311 310 311 316 319 322 325 327
225 225 224 222 221 222 224 224 220 218 217 214 218 224 220 219 234 246 246 241 231 221 217 215 215 216 218 221 226 232 239 244 247 250 254 258 263 269 275 278 276 272 274 277 279 282 290 299 306 307 304 302 303 302 301 300 299 298 297 299 301 301 301 300 298 297 295 296 303 307 308 307 309 310 310 310 310 309 308 309 312 315 319 322 324
224 225 228 227 225 224 225 224 217 214 215 216 216 213 206 217 247 251 241 237 233 224 220 220 220 220 222 224 228 234 240 246 250 254 258 262 266 271 275 275 271 268 269 271 276 285 295 301 305 304 301 301 301 300 299 297 296 295 295 298 301 300 299 299 298 297 296 298 303 307 308 308 308 308 310 310 308 307 307 308 309 311 315 318 320
223 227 231 231 229 228 224 218 215 215 215 215 216 210 207 226 246 239 230 234 234 227 223 223 223 224 225 227 230 236 241 246 251 255 259 263 267 269 270 269 268 268 270 273 279 288 295 300 302 301 300 300 300 299 297 295 294 294 295 297 299 299 297 298 298 296 297 299 302 304 306 306 306 306 309 309 305 305 308 309 309 310 313 314 316
226 229 231 232 233 230 221 217 221 221 216 216 217 211 212 231 240 226 221 230 232 228 226 225 225 226 228 230 233 236 241 246 251 255 257 260 264 265 266 266 267 270 274 279 283 287 291 295 297 299 300 300 300 298 295 293 291 291 293 294 296 297 296 296 296 294 295 298 300 301 302 303 303 305 307 308 306 306 308 308 308 309 311 311 312
229 230 232 235 236 230 221 220 225 223 217 216 214 208 214 231 233 220 218 226 230 229 228 227 227 228 229 232 234 236 240 243 247 251 252 255 260 264 266 267 269 273 277 280 285 287 290 293 295 299 301 301 300 299 297 294 291 290 290 291 294 295 296 295 294 293 295 296 298 299 300 301 303 305 307 308 308 307 308 307 306 307 309 309 309
231 232 234 236 234 229 225 225 226 222 218 215 210 209 217 227 223 217 217 222 228 229 227 227 227 227 230 233 235 237 239 240 242 243 245 251 258 263 266 268 271 274 275 279 284 287 290 292 296 300 302 302 303 302 301 299 295 292 291 291 293 294 294 294 294 294 296 296 296 298 299 300 303 306 306 307 308 306 306 307 306 306 308 307 307
233 234 235 235 233 230 229 228 226 222 218 213 209 211 218 218 215 215 216 220 226 228 228 228 227 227 230 233 236 240 241 241 241 241 242 246 252 258 264 269 271 272 273 276 282 286 288 291 296 300 301 303 304 303 304 303 299 295 292 291 292 291 291 292 293 295 297 297 297 297 297 299 303 305 304 305 306 306 306 306 305 306 306 306 305
235 235 235 234 233 232 231 229 226 223 218 212 208 211 216 215 214 216 216 218 223 227 229 230 228 229 231 233 237 241 243 244 244 245 246 247 250 257 264 268 270 272 274 277 281 284 286 289 295 299 300 302 302 303 305 305 302 297 292 290 290 289 289 289 290 293 295 295 296 296 297 300 302 302 302 304 304 304 305 305 304 303 303 302 301
236 236 236 236 235 233 232 228 224 220 214 210 210 216 222 218 215 216 216 217 221 226 230 231 229 230 232 234 237 241 242 243 244 247 251 253 256 261 266 269 271 274 276 277 280 283 286 289 293 297 299 300 301 304 305 305 302 298 294 291 289 288 288 288 287 288 292 295 297 299 299 300 299 300 303 304 303 303 303 304 304 303 301 299 299
238 238 238 238 235 232 229 225 222 216 209 208 218 228 230 221 214 215 217 218 221 224 228 230 230 229 232 235 237 239 241 240 241 246 253 258 263 267 269 271 273 275 277 277 278 281 285 289 292 295 298 299 300 303 304 303 302 299 297 294 291 289 287 286 284 283 287 293 298 300 300 299 299 301 304 306 304 303 304 304 304 303 300 299 299
241 241 241 239 235 231 227 225 221 212 205 212 227 233 231 220 210 211 217 219 220 223 226 229 229 229 232 235 236 237 237 236 240 247 255 263 269 271 272 272 274 276 278 279 281 283 286 289 292 295 297 298 299 302 302 302 302 301 299 296 294 290 286 284 283 283 288 294 298 299 300 301 301 303 305 306 305 305 306 305 304 303 302 302 302
244 243 243 240 236 234 231 225 215 204 204 222 233 230 225 217 208 209 217 219 220 224 226 228 230 231 234 236 237 237 236 237 242 250 258 266 271 272 273 274 275 277 280 282 285 286 288 290 292 294 295 296 299 301 301 301 302 302 300 298 296 291 286 283 283 286 292 297 298 299 300 301 302 302 304 304 305 307 308 306 305 306 307 305 304
248 247 246 242 240 237 230 221 210 202 207 227 234 228 221 213 208 211 217 220 222 225 228 230 232 234 236 238 240 240 241 245 250 256 262 267 269 272 275 275 275 277 281 285 287 287 288 289 291 292 294 296 299 300 300 302 304 303 301 299 295 290 288 288 289 291 294 296 298 299 300 301 301 302 304 306 308 312 312 308 309 312 311 307 306
252 251 251 248 244 236 225 218 212 207 210 226 236 231 219 211 211 215 220 224 226 227 230 234 236 238 239 241 243 245 247 249 253 258 261 262 266 273 276 275 276 280 286 288 287 286 287 289 290 291 294 297 299 301 303 305 305 303 300 296 293 293 295 297 297 296 296 298 301 302 300 302 305 306 309 311 312 314 312 308 311 315 313 311 311
258 259 256 250 243 233 224 218 213 210 213 228 230 223 214 211 216 221 225 230 232 232 236 239 242 244 245 245 247 248 250 254 258 261 260 259 268 277 276 275 280 287 289 287 284 285 286 288 289 291 295 298 300 303 306 306 304 301 297 294 295 299 302 303 303 303 304 306 308 306 305 309 312 312 313 314 314 316 314 310 311 314 316 316 316
267 263 255 246 239 228 219 214 211 212 220 229 218 211 210 215 221 226 230 234 236 239 241 244 248 251 252 252 252 253 256 260 261 259 259 265 275 280 276 276 283 286 285 283 282 284 286 288 290 292 296 299 302 305 306 304 301 298 295 296 300 304 306 308 310 312 312 312 313 314 316 316 316 315 315 316 319 321 321 316 312 315 319 319 320
262 256 248 241 234 223 217 215 214 215 224 226 216 214 217 222 228 234 238 242 242 243 246 250 256 259 258 257 256 259 264 264 258 257 266 276 280 276 272 276 282 284 283 282 282 284 286 289 291 294 297 300 303 305 304 302 299 297 297 300 305 310 312 314 316 317 316 317 319 321 321 319 318 318 318 321 325 328 328 322 314 316 319 320 325
255 251 245 238 231 225 223 220 217 219 222 211 211 221 229 231 236 241 245 249 249 250 255 262 267 269 267 265 263 263 267 269 269 270 273 274 272 268 271 280 284 284 283 281 283 284 287 291 293 295 298 301 304 305 303 301 300 299 300 305 311 315 317 317 318 321 322 323 323 322 321 320 320 321 322 325 329 332 332 328 320 317 319 322 329
253 250 246 240 233 231 229 223 219 223 216 201 208 221 226 229 237 241 244 251 255 259 266 274 278 277 273 270 266 263 265 271 276 272 262 257 261 268 278 285 286 285 284 283 284 286 288 293 295 296 300 302 304 304 302 301 302 303 307 313 317 319 318 318 321 323 323 323 322 321 322 322 322 324 326 328 331 333 333 331 325 322 323 325 331
256 251 248 245 238 234 231 223 220 218 203 200 208 212 212 223 239 247 251 261 268 271 275 284 290 285 277 275 273 269 269 271 270 257 244 250 267 277 285 289 287 287 288 286 287 288 289 292 294 296 301 303 303 304 304 305 309 311 314 319 320 319 319 319 322 323 321 320 320 320 322 323 324 327 329 330 331 332 332 331 327 325 328 329 333
263 256 251 246 239 233 226 219 217 213 199 199 203 206 214 230 249 259 265 272 279 281 281 287 293 288 282 281 278 273 271 265 253 238 241 262 280 286 291 293 291 292 292 289 289 289 288 291 294 297 301 303 304 308 309 310 313 313 316 320 321 320 321 322 323 323 320 319 319 319 322 325 326 328 329 330 331 331 331 332 329 327 330 333 339
267 258 250 241 233 227 220 216 217 215 201 198 203 211 225 249 266 268 269 276 289 296 288 287 289 284 280 279 272 265 261 248 233 240 261 279 291 293 296 297 295 294 292 288 289 288 288 293 298 300 304 306 309 311 311 311 313 314 318 321 321 320 322 322 322 321 320 320 321 323 326 328 329 329 329 328 330 331 332 333 332 331 335 339 345
265 254 242 233 226 223 220 219 219 210 199 199 207 218 234 258 268 265 266 262 261 277 288 289 282 271 268 266 258 253 245 232 237 263 280 290 297 299 299 298 294 292 289 287 288 289 292 298 302 303 306 308 309 311 311 312 314 315 318 320 320 320 321 321 321 322 322 324 326 328 331 331 330 330 329 328 330 332 333 335 335 335 341 346 351
256 243 232 224 220 217 216 219 217 204 200 205 216 231 245 251 248 248 263 257 253 277 293 285 272 267 265 258 247 240 233 237 260 278 289 296 301 300 298 294 290 289 287 286 288 291 296 300 302 303 306 307 307 309 310 311 312 314 316 318 319 320 320 320 321 323 324 328 331 332 333 333 331 331 329 328 331 334 335 338 339 339 345 352 356
233 224 219 214 212 210 208 212 211 204 206 216 229 239 235 217 205 224 261 276 283 285 273 260 260 263 255 242 236 237 241 254 272 285 294 300 301 297 293 290 288 287 285 286 289 292 295 299 300 301 302 301 302 304 305 307 310 311 315 318 318 319 319 319 322 326 328 332 335 335 334 333 332 331 330 331 335 337 338 341 342 342 348 354 359
208 205 205 204 205 206 207 210 212 212 215 221 222 212 195 188 198 262 296 300 282 259 247 243 245 244 237 235 241 247 253 265 280 290 297 300 298 293 291 289 287 286 286 288 290 292 294 296 295 294 293 295 298 302 306 309 311 312 316 319 320 320 321 322 326 330 333 335 336 336 335 333 332 333 335 335 337 339 341 345 345 344 347 354 359
197 196 200 202 204 206 206 207 209 210 208 199 181 173 195 237 265 287 277 257 242 235 234 235 234 231 235 244 251 254 261 273 284 294 300 302 299 295 293 291 289 289 289 290 290 292 294 294 291 290 293 298 303 309 314 315 315 316 320 323 324 324 324 326 330 333 334 335 336 335 335 335 336 338 339 338 338 341 344 347 349 348 350 356 1
187 184 183 183 185 191 196 200 202 202 198 186 179 186 224 258 250 231 226 228 230 232 232 232 232 235 243 249 252 257 265 276 289 301 307 307 304 299 295 292 290 290 290 290 290 292 294 294 292 294 301 306 312 317 320 321 322 322 325 327 329 329 329 330 332 334 334 335 336 337 339 340 341 342 342 341 341 345 349 350 351 352 354 359 5
181 170 159 159 172 184 189 190 192 193 194 194 197 210 240 252 233 219 221 226 229 231 231 232 236 242 248 252 254 258 267 282 299 309 310 308 303 296 293 292 291 291 292 292 292 293 293 292 294 301 308 313 317 320 322 323 325 326 326 328 329 330 330 330 331 332 334 336 340 343 345 346 345 346 348 349 349 351 353 352 351 353 356 360 7
172 160 149 153 179 192 195 194 195 201 209 215 222 239 254 252 238 231 231 231 232 233 235 239 245 251 255 255 255 260 274 293 307 310 308 304 297 291 291 294 294 295 296 292 289 289 288 290 298 308 315 316 317 319 321 322 322 323 324 326 327 327 327 327 329 332 337 341 346 351 351 350 350 351 353 356 358 358 357 356 355 355 357 1 6
164 161 163 186 209 225 224 216 215 222 231 237 246 255 255 249 242 237 235 237 243 248 249 250 252 253 252 251 254 265 284 300 308 308 305 299 292 289 293 295 297 299 295 288 283 282 284 292 305 315 318 316 315 317 320 320 321 321 323 326 326 325 325 327 332 338 344 349 355 358 358 355 354 356 358 0 3 4 360 358 357 356 358 2 3
189 211 246 257 261 270 262 240 235 247 250 253 262 264 254 245 241 235 233 239 248 254 255 254 251 246 243 246 255 271 289 303 309 310 308 304 299 296 294 294 297 296 290 284 280 281 286 298 310 316 317 315 315 318 321 323 324 325 326 326 325 325 326 332 340 347 352 358 2 3 2 359 357 358 360 2 6 7 3 0 359 357 358 3 4
238 244 251 252 249 248 240 229 245 266 265 265 269 255 225 226 230 230 235 242 249 256 258 256 250 245 243 248 260 275 292 301 302 305 311 309 306 306 305 305 303 296 288 283 280 281 291 303 310 313 314 314 316 319 323 326 327 326 326 325 326 328 332 340 349 354 358 3 4 4 4 2 360 359 0 3 7 9 7 4 2 359 359 3 8
227 215 205 196 191 191 195 204 220 235 242 248 239 219 227 239 240 241 246 252 259 264 265 261 255 250 248 255 265 270 277 280 274 283 304 307 316 327 331 327 318 304 293 285 281 284 296 305 309 311 311 311 315 319 320 322 324 324 326 327 329 334 341 349 355 359 2 2 2 3 5 4 3 1 2 4 7 9 9 6 4 3 2 4 10
141 138 136 133 133 134 138 154 180 203 233 247 250 258 261 258 254 255 260 268 273 274 268 260 256 254 251 251 253 253 254 256 255 276 306 318 328 336 337 332 322 311 300 292 289 295 305 308 309 310 310 309 313 315 315 317 321 324 328 333 335 340 347 353 358 3 4 2 2 3 5 7 7 4 4 6 8 9 10 9 7 6 5 5 10
130 130 130 127 131 159 238 260 251 245 245 246 252 258 259 259 262 269 276 282 282 277 265 257 257 257 252 245 243 243 242 242 247 273 303 316 325 331 332 326 315 305 296 290 290 297 307 310 309 310 310 310 310 311 311 313 320 326 332 337 341 343 348 354 360 4 3 2 2 3 5 7 8 6 6 9 10 10 10 10 9 10 9 8 10
135 149 231 255 261 256 254 253 250 249 253 259 265 268 269 271 276 281 285 283 277 269 260 255 254 252 245 238 237 239 240 241 247 261 282 301 314 323 325 315 301 290 283 282 288 297 303 306 306 308 311 311 311 311 311 315 323 332 336 338 340 343 348 353 358 0 0 0 1 2 5 9 9 7 7 9 10 11 12 12 12 12 12 11 14
218 265 259 236 226 227 229 235 245 258 268 273 276 277 276 276 277 276 275 272 267 260 253 247 243 241 239 239 241 243 244 248 252 259 272 290 303 314 317 307 291 279 273 275 283 292 296 298 301 308 316 318 317 315 316 322 331 338 337 335 337 341 345 349 353 355 356 358 360 0 3 8 9 8 9 10 10 11 12 13 14 15 14 14 17
220 232 209 191 197 211 228 245 262 274 278 276 274 272 270 271 273 272 269 267 266 262 253 243 236 236 238 241 245 248 249 250 254 260 272 285 297 309 313 303 285 273 268 269 275 283 289 292 298 312 323 326 325 323 325 333 338 335 331 331 333 335 339 344 349 350 351 354 357 359 1 6 9 9 10 12 12 11 12 14 15 16 16 16 17
203 200 197 200 212 232 260 278 283 281 274 269 269 268 269 271 272 268 263 262 263 263 254 241 234 236 240 245 249 252 253 252 255 262 272 286 302 314 313 300 283 271 265 264 267 275 281 285 302 322 330 331 331 333 336 337 333 326 321 324 328 330 334 339 343 345 346 349 352 354 358 3 7 9 11 14 13 11 11 13 14 15 16 17 18
190 194 202 223 256 279 289 288 280 270 265 265 267 269 269 267 266 264 262 260 259 259 252 242 238 241 246 249 252 254 252 250 253 261 274 292 311 318 312 298 283 272 264 260 263 271 275 280 301 325 333 334 336 342 338 330 323 317 314 314 317 322 328 333 334 337 340 342 345 347 352 0 4 7 11 15 14 12 10 11 13 15 15 15 17
193 222 265 287 292 290 283 273 262 257 257 259 260 260 261 261 262 263 261 255 251 249 245 243 243 247 250 253 253 252 250 249 252 261 277 295 308 312 306 293 278 267 259 256 260 267 270 275 303 326 331 333 338 340 330 320 313 308 308 311 313 315 320 322 323 327 331 334 336 340 346 354 1 5 10 14 15 13 11 11 13 16 17 16 16
282 295 297 293 285 271 253 236 221 205 193 197 218 247 262 266 267 269 266 262 259 256 252 250 250 250 251 252 250 248 247 249 254 264 278 291 299 301 297 287 274 262 252 250 256 261 262 272 308 324 326 326 330 329 322 316 310 304 304 308 308 308 310 311 313 318 323 326 330 336 342 350 357 2 8 12 14 15 15 14 14 17 19 20 21
288 285 279 265 249 235 227 217 205 204 212 226 247 262 265 264 267 270 272 273 275 275 273 269 262 253 247 244 242 241 241 245 253 264 273 281 290 299 299 291 276 259 246 243 247 250 253 273 307 319 323 323 320 318 316 315 313 309 308 309 308 307 308 308 310 314 319 322 327 333 341 348 354 360 5 9 12 15 17 17 16 18 20 22 25
268 256 200 190 197 217 238 250 259 264 268 273 277 275 268 260 253 249 252 262 269 273 274 270 261 251 242 234 233 237 240 243 250 259 266 276 289 297 298 290 271 248 231 228 235 241 253 280 300 312 319 319 311 309 312 314 316 317 317 316 314 311 308 307 307 311 317 322 329 337 345 350 353 358 3 8 10 14 18 19 18 18 20 22 25
50 92 98 93 330 305 295 290 288 283 279 278 277 274 268 264 259 254 253 256 257 258 264 266 257 246 236 230 230 235 239 243 250 256 259 269 282 287 285 279 263 238 224 229 240 248 260 279 294 306 312 309 300 302 308 312 317 320 320 319 318 315 311 307 305 307 315 324 333 344 353 355 353 355 1 6 8 11 17 20 20 19 19 21 24
114 98 76 48 13 341 319 309 301 291 282 274 268 265 265 268 268 267 265 263 259 254 256 259 256 247 240 237 237 238 240 244 251 257 258 263 272 279 278 270 256 240 234 240 249 254 262 278 292 302 303 296 287 288 297 307 317 320 321 323 324 322 318 313 306 303 324 346 355 0 4 4 0 358 1 6 9 10 14 20 22 21 19 20 23